Time,TemperatureF,DewpointF,PressureIn,WindDirection,WindDirectionDegrees,WindSpeedMPH,WindSpeedGustMPH,Humidity,HourlyPrecipIn,Conditions,Clouds,dailyrainin,SolarRadiationWatts/m^2,SoftwareType,DateUTC
2013-05-06 00:02:00,47.0,26.0,-100.00,SW,236,7.0,13.0,44,0.00,,,0.00,0.000000,,2013-05-06 06:02:00,
2013-05-06 00:32:00,45.0,27.0,-100.00,SSW,207,4.0,14.0,48,0.00,,,0.00,0.000000,,2013-05-06 06:32:00,
2013-05-06 00:42:00,45.0,27.0,-100.00,SSW,207,4.0,14.0,48,0.00,,,0.00,0.000000,,2013-05-06 06:42:00,
2013-05-06 00:52:00,45.0,27.0,-100.00,SSW,207,4.0,14.0,48,0.00,,,0.00,0.000000,,2013-05-06 06:52:00,
2013-05-06 01:01:00,45.0,27.0,-100.00,SSW,207,4.0,14.0,48,0.00,,,0.00,0.000000,,2013-05-06 07:01:00,
2013-05-06 01:32:00,43.0,27.0,-100.00,NW,320,3.0,8.0,53,0.00,,,0.00,0.000000,,2013-05-06 07:32:00,
2013-05-06 01:42:00,43.0,27.0,-100.00,NW,320,3.0,8.0,53,0.00,,,0.00,0.000000,,2013-05-06 07:42:00,
2013-05-06 01:52:00,43.0,27.0,-100.00,NW,320,3.0,8.0,53,0.00,,,0.00,0.000000,,2013-05-06 07:52:00,
2013-05-06 02:02:00,43.0,27.0,-100.00,NW,320,3.0,8.0,53,0.00,,,0.00,0.000000,,2013-05-06 08:02:00,
2013-05-06 02:32:00,43.0,28.0,-100.00,East,86,3.0,5.0,55,0.00,,,0.00,0.000000,,2013-05-06 08:32:00,
2013-05-06 02:42:00,43.0,28.0,-100.00,East,86,3.0,5.0,55,0.00,,,0.00,0.000000,,2013-05-06 08:42:00,
2013-05-06 02:52:00,43.0,28.0,-100.00,East,86,3.0,5.0,55,0.00,,,0.00,0.000000,,2013-05-06 08:52:00,
2013-05-06 03:01:00,43.0,28.0,-100.00,East,86,3.0,5.0,55,0.00,,,0.00,0.000000,,2013-05-06 09:01:00,
2013-05-06 03:33:00,41.0,30.0,-100.00,NE,41,4.0,9.0,65,0.00,,,0.00,0.000000,,2013-05-06 09:33:00,
2013-05-06 03:43:00,41.0,30.0,-100.00,NE,41,4.0,9.0,65,0.00,,,0.00,0.000000,,2013-05-06 09:43:00,
2013-05-06 03:53:00,41.0,30.0,-100.00,NE,41,4.0,9.0,65,0.00,,,0.00,0.000000,,2013-05-06 09:53:00,
2013-05-06 04:02:00,41.0,30.0,-100.00,NE,41,4.0,9.0,65,0.00,,,0.00,0.000000,,2013-05-06 10:02:00,
2013-05-06 04:33:00,39.0,29.0,-100.00,NNW,337,3.0,4.0,68,0.00,,,0.00,0.000000,,2013-05-06 10:33:00,
2013-05-06 04:42:00,39.0,29.0,-100.00,NNW,337,3.0,4.0,68,0.00,,,0.00,0.000000,,2013-05-06 10:42:00,
2013-05-06 04:52:00,39.0,29.0,-100.00,NNW,337,3.0,4.0,68,0.00,,,0.00,0.000000,,2013-05-06 10:52:00,
2013-05-06 05:02:00,39.0,29.0,-100.00,NNW,337,3.0,4.0,68,0.00,,,0.00,0.000000,,2013-05-06 11:02:00,
2013-05-06 05:32:00,39.0,29.0,-100.00,WSW,246,3.0,5.0,67,0.00,,,0.00,0.000000,,2013-05-06 11:32:00,
2013-05-06 05:42:00,39.0,29.0,-100.00,WSW,246,3.0,5.0,67,0.00,,,0.00,0.000000,,2013-05-06 11:42:00,
2013-05-06 05:52:00,39.0,29.0,-100.00,WSW,246,3.0,5.0,67,0.00,,,0.00,0.000000,,2013-05-06 11:52:00,
2013-05-06 06:01:00,39.0,29.0,-100.00,WSW,246,3.0,5.0,67,0.00,,,0.00,0.000000,,2013-05-06 12:01:00,
2013-05-06 06:32:00,40.0,34.0,-100.00,West,275,6.0,9.0,78,0.00,,,-99.99,0.000000,,2013-05-06 12:32:00,
2013-05-06 06:42:00,40.0,34.0,-100.00,West,275,6.0,9.0,78,0.00,,,-99.99,0.000000,,2013-05-06 12:42:00,
2013-05-06 06:52:00,40.0,34.0,-100.00,West,275,6.0,9.0,78,0.00,,,-99.99,0.000000,,2013-05-06 12:52:00,
2013-05-06 07:01:00,40.0,34.0,-100.00,West,275,6.0,9.0,78,0.00,,,-99.99,0.000000,,2013-05-06 13:01:00,
2013-05-06 08:32:00,42.0,37.0,-100.00,WNW,284,5.0,7.0,82,-99.99,,,0.01,92.000000,,2013-05-06 14:32:00,
2013-05-06 08:42:00,42.0,37.0,-100.00,WNW,284,5.0,7.0,82,-99.99,,,0.01,92.000000,,2013-05-06 14:42:00,
2013-05-06 08:52:00,42.0,37.0,-100.00,WNW,284,5.0,7.0,82,-99.99,,,0.01,92.000000,,2013-05-06 14:52:00,
2013-05-06 09:01:00,42.0,37.0,-100.00,WNW,284,5.0,7.0,82,-99.99,,,0.01,92.000000,,2013-05-06 15:01:00,
2013-05-06 09:33:00,42.0,37.0,-100.00,SW,222,3.0,6.0,82,0.00,,,0.01,128.000000,,2013-05-06 15:33:00,
2013-05-06 09:43:00,42.0,37.0,-100.00,SW,222,3.0,6.0,82,0.00,,,0.01,128.000000,,2013-05-06 15:43:00,
2013-05-06 09:53:00,42.0,37.0,-100.00,SW,222,3.0,6.0,82,0.00,,,0.01,128.000000,,2013-05-06 15:53:00,
2013-05-06 10:03:00,42.0,37.0,-100.00,SW,222,3.0,6.0,82,0.00,,,0.01,128.000000,,2013-05-06 16:03:00,
2013-05-06 10:33:00,46.0,35.0,-100.00,East,94,6.0,12.0,66,0.00,,,0.01,398.000000,,2013-05-06 16:33:00,
2013-05-06 10:42:00,46.0,35.0,-100.00,East,94,6.0,12.0,66,0.00,,,0.01,398.000000,,2013-05-06 16:42:00,
2013-05-06 10:52:00,46.0,35.0,-100.00,East,94,6.0,12.0,66,0.00,,,0.01,398.000000,,2013-05-06 16:52:00,
2013-05-06 11:03:00,46.0,35.0,-100.00,East,94,6.0,12.0,66,0.00,,,0.01,398.000000,,2013-05-06 17:03:00,
2013-05-06 15:33:00,40.0,36.0,-100.00,ENE,70,9.0,14.0,87,-99.99,,,-99.99,424.000000,,2013-05-06 21:33:00,
2013-05-06 15:43:00,40.0,36.0,-100.00,ENE,70,9.0,14.0,87,-99.99,,,-99.99,424.000000,,2013-05-06 21:43:00,
2013-05-06 15:53:00,40.0,36.0,-100.00,ENE,70,9.0,14.0,87,-99.99,,,-99.99,424.000000,,2013-05-06 21:53:00,
2013-05-06 16:03:00,40.0,36.0,-100.00,ENE,70,9.0,14.0,87,-99.99,,,-99.99,424.000000,,2013-05-06 22:03:00,
2013-05-06 16:33:00,38.0,36.0,-100.00,NE,36,6.0,14.0,94,0.00,,,-99.99,194.000000,,2013-05-06 22:33:00,
2013-05-06 16:45:00,38.0,36.0,-100.00,NE,36,6.0,14.0,94,0.00,,,-99.99,194.000000,,2013-05-06 22:45:00,
2013-05-06 16:52:00,38.0,36.0,-100.00,NE,36,6.0,14.0,94,0.00,,,-99.99,194.000000,,2013-05-06 22:52:00,
2013-05-06 17:03:00,38.0,36.0,-100.00,NE,36,6.0,14.0,94,0.00,,,-99.99,194.000000,,2013-05-06 23:03:00,
2013-05-06 17:32:00,38.0,36.0,-100.00,NE,46,3.0,10.0,94,0.02,,,-99.99,137.000000,,2013-05-06 23:32:00,
2013-05-06 17:42:00,38.0,36.0,-100.00,NE,46,3.0,10.0,94,0.02,,,-99.99,137.000000,,2013-05-06 23:42:00,
2013-05-06 17:52:00,38.0,36.0,-100.00,NE,46,3.0,10.0,94,0.02,,,-99.99,137.000000,,2013-05-06 23:52:00,
2013-05-06 18:01:00,38.0,36.0,-100.00,NE,46,3.0,10.0,94,0.02,,,-99.99,137.000000,,2013-05-07 00:01:00,
2013-05-06 19:32:00,36.0,35.0,-100.00,ENE,63,4.0,12.0,97,-99.99,,,-99.99,39.000000,,2013-05-07 01:32:00,
2013-05-06 19:42:00,36.0,35.0,-100.00,ENE,63,4.0,12.0,97,-99.99,,,-99.99,39.000000,,2013-05-07 01:42:00,
2013-05-06 19:53:00,36.0,35.0,-100.00,ENE,63,4.0,12.0,97,-99.99,,,-99.99,39.000000,,2013-05-07 01:53:00,
2013-05-06 20:02:00,36.0,35.0,-100.00,ENE,63,4.0,12.0,97,-99.99,,,-99.99,39.000000,,2013-05-07 02:02:00,
2013-05-06 20:32:00,35.0,34.0,-100.00,North,1,1.0,5.0,98,0.02,,,-99.99,10.000000,,2013-05-07 02:32:00,
2013-05-06 20:42:00,35.0,34.0,-100.00,North,1,1.0,5.0,98,0.02,,,-99.99,10.000000,,2013-05-07 02:42:00,
2013-05-06 20:52:00,35.0,34.0,-100.00,North,1,1.0,5.0,98,0.02,,,-99.99,10.000000,,2013-05-07 02:52:00,
2013-05-06 21:01:00,35.0,34.0,-100.00,North,1,1.0,5.0,98,0.02,,,-99.99,10.000000,,2013-05-07 03:01:00,
2013-05-06 21:32:00,34.0,34.0,-100.00,NNW,333,3.0,8.0,98,0.01,,,-99.99,0.000000,,2013-05-07 03:32:00,
2013-05-06 21:43:00,34.0,34.0,-100.00,NNW,333,3.0,8.0,98,0.01,,,-99.99,0.000000,,2013-05-07 03:43:00,
2013-05-06 21:53:00,34.0,34.0,-100.00,NNW,333,3.0,8.0,98,0.01,,,-99.99,0.000000,,2013-05-07 03:53:00,
2013-05-06 22:03:00,34.0,34.0,-100.00,NNW,333,3.0,8.0,98,0.01,,,-99.99,0.000000,,2013-05-07 04:03:00,
2013-05-06 22:33:00,34.0,33.0,-100.00,SE,124,2.0,7.0,97,0.00,,,-99.99,0.000000,,2013-05-07 04:33:00,
2013-05-06 22:42:00,34.0,33.0,-100.00,SE,124,2.0,7.0,97,0.00,,,-99.99,0.000000,,2013-05-07 04:42:00,
2013-05-06 22:53:00,34.0,33.0,-100.00,SE,124,2.0,7.0,97,0.00,,,-99.99,0.000000,,2013-05-07 04:53:00,
2013-05-06 23:02:00,34.0,33.0,-100.00,SE,124,2.0,7.0,97,0.00,,,-99.99,0.000000,,2013-05-07 05:02:00,
2013-05-06 23:32:00,33.0,32.0,-100.00,WNW,282,3.0,6.0,96,0.00,,,-99.99,0.000000,,2013-05-07 05:32:00,
2013-05-06 23:42:00,33.0,32.0,-100.00,WNW,282,3.0,6.0,96,0.00,,,-99.99,0.000000,,2013-05-07 05:42:00,
2013-05-06 23:52:00,33.0,32.0,-100.00,WNW,282,3.0,6.0,96,0.00,,,-99.99,0.000000,,2013-05-07 05:52:00,